Regional Weather Roundup
Issued by NWS Newport/Morehead, NC

Current Version | Previous Version | Graphics & Text | Print | Product List | Glossary Off
Versions: 1 2 3 4 5 6 7 8 9 10 11 12 13 14 15 16 17 18 19 20 21 22 23 24 25 26 27 28 29 30 31 32 33 34 35 36 37 38 39 40 41 42 43 44 45 46 47 48 49 50

000
ASUS42 KMHX 270424
RWRMHX
WEATHER ROUNDUP FOR EASTERN NORTH CAROLINA
NATIONAL WEATHER SERVICE NEWPORT/MOREHEAD CITY NC
1200 AM EDT MON APR 27 2015

NOTE: "FAIR" INDICATES FEW OR NO CLOUDS BELOW 12,000 FEET
WITH NO SIGNIFICANT WEATHER AND/OR OBSTRUCTIONS TO VISIBILITY

NCZ015>017-031-032-045>047-102-103-270500-
NORTH COAST

CITY           SKY/WX    TMP DP  RH WIND       PRES   REMARKS
EDENTON        CLEAR     46  44  95 CALM      29.75R
ELIZABETH CITY PTCLDY    50  40  68 NE7       29.73F
KITTY HAWK     MOCLDY    51  35  54 N6        29.71F
MANTEO         PTCLDY    51  34  51 N7        29.73S

$$

NCZ045>047-081-094-103-104-270500-
CENTRAL COAST

CITY           SKY/WX    TMP DP  RH WIND       PRES   REMARKS
FRISCO         MOCLDY    51  43  74 NE10G23   29.72S
SWANQUARTER      N/A     46 N/A N/A NW3       29.71S

$$

NCZ095-097-098-100-101-270500-
SOUTHERN COAST

CITY           SKY/WX    TMP DP  RH WIND       PRES   REMARKS
BEAUFORT       CLOUDY    52  48  86 N5        29.75S
CEDAR ISLAND     N/A     55 N/A N/A N13G18    29.79S
JACKSONVILLE   CLOUDY    52  48  86 N7        29.75S
PINEY ISLAND   CLOUDY   N/A N/A N/A N8        29.75S
WILMINGTON     LGT RAIN  53  48  83 N5        29.78R


$$

NCZ011>013-027>030-043-044-078>080-089-090>093-098-270500-
COASTAL PLAIN

CITY           SKY/WX    TMP DP  RH WIND       PRES   REMARKS
AHOSKIE          N/A     45  44  97 CALM      29.76S FOG
CLINTON        LGT RAIN  50  50 100 CALM      29.78S
ELIZABETHTOWN  MOCLDY    51  50  98 CALM      29.78S
GOLDSBORO      CLOUDY    51  48  91 NW1       29.75F
GREENVILLE     PTCLDY    48  48 100 CALM      29.80R FOG
HAVELOCK       MOCLDY    53  47  79 N7        29.76F
KENANSVILLE    MOCLDY    49  48  97 CALM      29.79R
KINSTON        MOCLDY    49  48  97 CALM      29.77F
NEW BERN       CLOUDY    51  47  86 N3        29.77F
RICHLANDS      CLOUDY    50  46  87 CALM      29.78S
ROCKY MOUNT    MOCLDY    49  46  90 CALM      29.77R
WASHINGTON     PTCLDY    46  45  96 CALM      29.77S
WHITEVILLE     CLOUDY    52  48  88 N3        29.77S

$$

AMZ130-135-150-152-154-156-158-170-250-252-270-ANZ085-086-088-633-658-670-270500-
MARINE OBSERVATIONS

STATION/POSITION TIME  TEMP    WIND        PRES    WAVE   SWELL
                       AIR SEA DIR/SP/G            HT/PER HT/PER
                 (UTC) (F)     (DEG/KT/KT) (MB)    (FT/S) (FT/S)
CHESAPEAKE LIGHT 0400   51      80/  5/  5 1007.6
64 E VA BEACH    0350   54 55  360/ 10/ 12 1006.1    5/ 6   3/ 6
DUCK             0400   53 54   30/ 10/ 11 1005.5
2 E DUCK         0311      53                N/A     4/ 6
10 NE DUCK       NOT AVBL
OREGON INLET     0400   52 55  360/  9/ 13 1006.0
HATTERAS CG      0300   56 61   10/ 15/ 22 1005.4
DIAMOND BUOY     0350   58 77   10/ 19/ 23 1005.8    7/10   5/10
CAPE LOOKOUT     0400   54     360/  8/  9 1006.9
BEAUFORT LAB     0400          360/  5/  8   N/A
27 SE WRIGHTSVLE 0300   55 72   30/ 12/ 16   N/A
5 SE WRIGHTSVLE  0308   56 65   30/ 12/ 17 1007.5
225 S CAPE HAT   0350   69 71   70/  8/ 10 1004.3    7/ 8   7/ 8
41 SE CHARLESTON 0350   66 71   40/ 21/ 25 1004.5    5/ 5   2/11

$$


USA.gov is the U.S. government's official web portal to all federal, state and local government web resources and services.